Flag for Austria Weather past 2 weeks in Hollabrunn, Lower Austria, Austria

Now
85 °F

Pleasantly warm.


Feels Like: 82 °F
Forecast: 59 / 87 °F
Wind: 5 mph from East

Location: Retz

Current Time: Jul 2, 2015 at 6:35:11 PM

Latest Report: Jul 2, 2015 at 5:00 PM


Visibility: N/A

Pressure: 30.16 "Hg

Humidity: 30%

Dew point: 50 °F

Location of HollabrunnLocation

Historic Weather in Hollabrunn — Graph

°F

Hollabrunn temperature yesterday

Maximum temperature yesterday: 84 °F (at 5:00 PM)
Minimum temperature yesterday: 65 °F (at 6:00 AM)
Average temperature yesterday: 74 °F

Past Weeks' High & Low Weather Summary

 TemperatureHumidityPressure
High85 °F (Jul 2, 4:00 PM)99% (Jun 23, 3:00 AM)30.24 "Hg (Jun 23, 3:00 AM)
Low48 °F (Jun 18, 5:00 AM)30% (Jul 2, 5:00 PM)29.72 "Hg (Jun 23, 4:00 AM)
Average63 °F63%30.05 "Hg
* Reported Jun 17 5:00 PM — Jul 2 5:00 PM, Hollabrunn, Weather by CustomWeather, © 2015

Note: Actual official high and low records may vary slightly from our data, if they occured in-between our weather recording intervals... More about our weather records

Advertising

Hollabrunn weather history for previous 24 hours

 ConditionsComfort  
Time TempWeatherWind HumidityBarometerVisibility
5:00 PM
Thu, Jul 2
85 °FPleasantly warm.5 mph30%30.16 "HgN/A
4:00 PM85 °FPleasantly warm.3 mph33%30.16 "HgN/A
3:00 PM84 °FPleasantly warm.3 mph35%30.16 "HgN/A
2:00 PM85 °FSunny.5 mph35%30.17 "Hg16 mi
1:00 PM82 °FPleasantly warm.5 mph37%30.18 "HgN/A
12:00 PM81 °FPleasantly warm.5 mph40%30.20 "HgN/A
11:00 AM79 °FWarm.6 mph43%30.19 "HgN/A
10:00 AM76 °FMild.5 mph50%30.20 "HgN/A
9:00 AM73 °FMild.5 mph53%30.21 "HgN/A
8:00 AM70 °FSunny.5 mph57%30.21 "Hg12 mi
7:00 AM67 °FPassing clouds.5 mph60%30.20 "Hg11 mi
6:00 AM66 °FMild.6 mph61%30.20 "HgN/A
5:00 AM66 °FMild.6 mph58%30.18 "HgN/A
4:00 AM67 °FMild.6 mph58%30.18 "HgN/A
3:00 AM67 °FMild.5 mph58%30.19 "HgN/A
2:00 AM68 °FMild.5 mph57%30.19 "HgN/A
1:00 AM69 °FMild.5 mph60%30.19 "HgN/A
12:00 AM69 °FMild.5 mph61%30.18 "HgN/A
11:00 PM
Wed, Jul 1
71 °FMild.5 mph58%30.17 "HgN/A
10:00 PM72 °FMild.5 mph53%30.15 "HgN/A
9:00 PM75 °FMild.3 mph52%30.12 "HgN/A
8:00 PM80 °FSunny.3 mph42%30.10 "Hg14 mi
7:00 PM82 °FPleasantly warm.2 mph38%30.09 "HgN/A
6:00 PM82 °FPleasantly warm.3 mph38%30.09 "HgN/A
Weather by CustomWeather, © 2015

See weather overviewHow to use our weather pages